EW0121 Weather Reports


Display with metric or nautical units.
time (UTC)temp
F
wind
direction
speed
MPH
gust
MPH
rain 1hr
in
rain 24hr
in
rain mn
in
humidity
%
barometer
mb
20260506160012 60 18 2.0 8.0 0.00 0.00 0.00 43 1013.9
20260506154515 61 323 2.0 9.0 0.00 0.00 0.00 42 1014.0
20260506153020 63 346 3.0 8.0 0.00 0.00 0.00 41 1014.1
20260506151506 63 316 3.0 10.0 0.00 0.00 0.00 39 1014.2
20260506150012 59 11 2.0 14.0 0.00 0.00 0.00 43 1014.3
20260506144513 64 11 1.0 7.0 0.00 0.00 0.00 39 1014.4
20260506143025 64 346 2.0 9.0 0.00 0.00 0.00 42 1014.5
20260506141524 64 352 2.0 8.0 0.00 0.00 0.00 42 1014.5
20260506140008 65 41 3.0 12.0 0.00 0.00 0.00 40 1014.6
20260506134513 64 13 6.0 11.0 0.00 0.00 0.00 41 1014.6
20260506133018 60 319 2.0 7.0 0.00 0.00 0.00 45 1014.6
20260506131530 63 360 2.0 9.0 0.00 0.00 0.00 44 1014.6
20260506130024 62 38 2.0 12.0 0.00 0.00 0.00 45 1014.7
20260506124511 61 11 2.0 11.0 0.00 0.00 0.00 44 1014.7
20260506123016 61 13 2.0 13.0 0.00 0.00 0.00 45 1014.7
20260506121520 60 79 4.0 10.0 0.00 0.00 0.00 46 1014.7
20260506120023 59 74 4.0 10.0 0.00 0.00 0.00 46 1014.8
20260506114533 59 352 4.0 12.0 0.00 0.00 0.00 46 1015.0
20260506113014 59 315 5.0 10.0 0.00 0.00 0.00 49 1015.0
20260506111521 59 336 1.0 6.0 0.00 0.00 0.00 50 1015.1
20260506110024 58 352 3.0 10.0 0.00 0.00 0.00 50 1015.1
20260506104528 57 11 1.0 5.0 0.00 0.00 0.00 52 1015.1
20260506103033 58 261 1.0 8.0 0.00 0.00 0.00 53 1015.2
20260506101527 57 12 2.0 8.0 0.00 0.00 0.00 54 1015.2
20260506100004 55 55 1.0 6.0 0.00 0.00 0.00 58 1015.2
20260506094512 55 352 2.0 7.0 0.00 0.00 0.00 57 1015.1
20260506093014 54 23 3.0 11.0 0.00 0.00 0.00 61 1015.1
20260506091514 55 44 1.0 5.0 0.00 0.00 0.00 60 1015.0
20260506090019 54 38 2.0 9.0 0.00 0.00 0.00 60 1015.0
20260506084504 53 27 1.0 4.0 0.00 0.00 0.00 62 1014.9
20260506083006 52 13 4.0 11.0 0.00 0.00 0.00 63 1014.9
20260506081510 51 352 3.0 10.0 0.00 0.00 0.00 65 1015.0
20260506073005 49 15 2.0 5.0 0.00 0.00 0.00 72 1014.9
20260506071509 48 20 2.0 5.0 0.00 0.00 0.00 72 1014.8
20260506061508 46 23 2.0 5.0 0.00 0.00 0.00 76 1014.4
20260506044540 46 360 1.0 5.0 0.00 0.00 0.00 77 1014.2
20260506043016 47 348 2.0 6.0 0.00 0.00 0.00 78 1014.1
20260506041524 47 360 1.0 9.0 0.00 0.00 0.00 78 1014.0
20260506040029 47 44 2.0 9.0 0.00 0.00 0.00 77 1013.9
20260506034536 47 53 1.0 5.0 0.00 0.00 0.00 77 1014.0
20260506033017 47 19 2.0 5.0 0.00 0.00 0.00 77 1014.1
20260506031521 47 352 1.0 4.0 0.00 0.00 0.00 76 1014.1
20260506030024 47 37 1.0 5.0 0.00 0.00 0.00 76 1014.1
20260506024528 48 352 1.0 9.0 0.00 0.00 0.00 76 1014.1
20260506023014 48 48 2.0 8.0 0.00 0.00 0.00 76 1014.1
20260506021521 48 11 2.0 7.0 0.00 0.00 0.00 77 1014.1
20260506020022 49 18 1.0 5.0 0.00 0.00 0.00 78 1014.1
20260506014531 49 352 1.0 3.0 0.00 0.00 0.00 78 1014.1
20260506013027 49 328 1.0 5.0 0.00 0.00 0.00 77 1014.3
20260506011507 49 46 1.0 6.0 0.00 0.00 0.00 77 1014.3
20260506010007 49 23 1.0 3.0 0.00 0.00 0.00 77 1014.2
20260506004505 49 36 1.0 6.0 0.00 0.00 0.00 76 1014.2
20260506003004 50 53 1.0 4.0 0.00 0.00 0.00 76 1014.2
20260506001508 50 42 1.0 9.0 0.00 0.00 0.00 74 1014.2
20260506000005 50 17 1.0 4.0 0.00 0.00 0.00 74 1014.2
20260505234510 50 42 0.0 4.0 0.00 0.00 0.00 75 1014.1
20260505233010 50 59 2.0 5.0 0.00 0.00 0.00 74 1014.1
20260505231510 51 352 1.0 5.0 0.00 0.00 0.00 73 1014.2
20260505230012 50 303 2.0 10.0 0.00 0.00 0.00 73 1014.1
20260505224510 50 322 2.0 9.0 0.00 0.00 0.00 73 1014.0
20260505223010 51 360 4.0 8.0 0.00 0.00 0.00 72 1013.9
20260505221507 51 352 1.0 8.0 0.00 0.00 0.00 72 1014.0
20260505220020 51 16 2.0 10.0 0.00 0.00 0.00 71 1014.0
20260505214507 51 17 3.0 9.0 0.00 0.00 0.00 71 1014.2
20260505213008 51 352 2.0 9.0 0.00 0.00 0.00 71 1014.1
20260505211511 51 334 3.0 8.0 0.00 0.00 0.00 70 1014.0
20260505210010 51 5 3.0 9.0 0.00 0.00 0.00 70 1014.0
20260505204511 52 24 4.0 8.0 0.00 0.00 0.00 69 1014.1
20260505203010 52 328 3.0 7.0 0.00 0.00 0.00 69 1014.1
20260505201512 52 352 3.0 7.0 0.00 0.00 0.00 69 1013.8
20260505200015 52 351 3.0 9.0 0.00 0.00 0.00 68 1013.8
20260505194527 53 30 3.0 9.0 0.00 0.00 0.00 67 1013.6
20260505193031 53 331 3.0 11.0 0.00 0.00 0.00 65 1013.5
20260505191517 54 313 5.0 10.0 0.00 0.00 0.00 62 1013.5
20260505190017 55 12 5.0 10.0 0.00 0.00 0.00 60 1013.3
20260505184516 56 346 6.0 11.0 0.00 0.00 0.00 59 1013.3
20260505183015 57 329 3.0 11.0 0.00 0.00 0.00 58 1013.1
20260505181517 58 58 5.0 13.0 0.00 0.00 0.00 56 1013.1
20260505180025 59 22 6.0 13.0 0.00 0.00 0.00 55 1013.1
20260505174529 60 329 4.0 13.0 0.00 0.00 0.00 55 1013.1
20260505173020 60 360 1.0 9.0 0.00 0.00 0.00 55 1013.2
20260505171517 59 9 3.0 11.0 0.00 0.00 0.00 55 1013.3
20260505170026 59 344 2.0 10.0 0.00 0.00 0.00 54 1013.3
20260505164520 59 314 6.0 12.0 0.00 0.00 0.00 55 1013.4
20260505163022 59 17 5.0 12.0 0.00 0.00 0.00 54 1013.4
20260505161502 60 9 4.0 11.0 0.00 0.00 0.00 52 1013.4